Location: Bucquoy
(50.1391°N, 2.7097°E)
Time: 08:55:20
(UTC+00:00)

Cosmos 1461 - Pass Details

Date: 28 September 2021
Orbit: 520 x 642 km, 65.0° (Epoch: 18 October)

Event Time Altitude Azimuth Distance (km) Brightness Sun altitude
Rises 18:12:34 0° 307° (NW) 2,699 7.4 -7.1°
Reaches altitude 10° 18:15:26 10° 286° (WNW) 1,784 7.1 -7.5°
Maximum altitude 18:17:55 16° 248° (WSW) 1,422 5.9 -7.9°
Drops below altitude 10° 18:20:22 10° 209° (SSW) 1,755 5.7 -8.3°
Sets 18:23:09 0° 187° (S) 2,632 6.3 -8.7°
